TimeEST,TemperatureF,Dew PointF,Humidity,Sea Level PressureIn,VisibilityMPH,Wind Direction,Wind SpeedMPH,Gust SpeedMPH,PrecipitationIn,Events,Conditions,WindDirDegrees,DateUTC
12:14 AM,32.5,25.5,75,30.19,10.0,NW,4.6,-,N/A,,Overcast,320,2012-11-05 05:14:00
12:35 AM,33.1,25.7,74,30.19,10.0,NW,5.8,-,N/A,,Overcast,320,2012-11-05 05:35:00
12:54 AM,33.3,25.7,74,30.19,10.0,NNW,5.8,-,N/A,,Overcast,340,2012-11-05 05:54:00
1:15 AM,34.2,26.2,73,30.19,10.0,North,9.2,-,N/A,,Overcast,10,2012-11-05 06:15:00
1:35 AM,34.3,26.2,72,30.19,10.0,NNE,4.6,-,N/A,,Overcast,20,2012-11-05 06:35:00
1:54 AM,34.9,26.1,70,30.19,10.0,NNE,4.6,-,N/A,,Overcast,20,2012-11-05 06:54:00
2:15 AM,35.2,25.7,68,30.19,10.0,North,4.6,-,N/A,,Overcast,360,2012-11-05 07:15:00
2:34 AM,35.8,25.5,66,30.19,10.0,North,4.6,-,N/A,,Overcast,350,2012-11-05 07:34:00
2:54 AM,35.6,25.5,67,30.19,10.0,NNW,3.5,-,N/A,,Overcast,330,2012-11-05 07:54:00
3:15 AM,36.0,25.5,66,30.20,10.0,WNW,3.5,-,N/A,,Overcast,300,2012-11-05 08:15:00
3:34 AM,35.6,25.7,67,30.20,10.0,Calm,Calm,-,N/A,,Overcast,0,2012-11-05 08:34:00
3:55 AM,36.0,25.7,66,30.20,10.0,NW,3.5,-,N/A,,Overcast,310,2012-11-05 08:55:00
4:14 AM,36.0,25.9,67,30.20,10.0,NW,3.5,-,N/A,,Overcast,310,2012-11-05 09:14:00
4:35 AM,36.1,25.7,66,30.20,10.0,North,5.8,-,N/A,,Overcast,350,2012-11-05 09:35:00
4:55 AM,36.1,26.2,67,30.20,10.0,North,3.5,-,N/A,,Overcast,360,2012-11-05 09:55:00
5:14 AM,36.0,26.6,69,30.20,10.0,North,3.5,-,N/A,,Overcast,360,2012-11-05 10:14:00
5:35 AM,36.0,26.4,68,30.20,10.0,North,3.5,-,N/A,,Overcast,360,2012-11-05 10:35:00
5:54 AM,36.1,26.6,68,30.20,10.0,Calm,Calm,-,N/A,,Overcast,0,2012-11-05 10:54:00
6:14 AM,36.5,26.2,66,30.20,10.0,North,4.6,-,N/A,,Overcast,360,2012-11-05 11:14:00
6:35 AM,35.8,26.4,69,30.21,10.0,Calm,Calm,-,N/A,,Overcast,0,2012-11-05 11:35:00
6:54 AM,35.6,26.4,69,30.22,10.0,NW,4.6,-,N/A,,Overcast,320,2012-11-05 11:54:00
7:15 AM,35.2,27.0,72,30.22,10.0,NW,5.8,-,N/A,,Overcast,310,2012-11-05 12:15:00
7:34 AM,35.2,27.1,72,30.22,10.0,NNW,4.6,-,N/A,,Overcast,330,2012-11-05 12:34:00
7:54 AM,35.1,27.3,73,30.22,10.0,NW,4.6,-,N/A,,Overcast,310,2012-11-05 12:54:00
8:15 AM,35.2,27.1,72,30.22,10.0,NW,3.5,-,N/A,,Mostly Cloudy,320,2012-11-05 13:15:00
8:34 AM,35.8,26.4,69,30.22,10.0,NW,5.8,-,N/A,,Clear,320,2012-11-05 13:34:00
8:55 AM,36.5,25.5,64,30.22,10.0,NNW,6.9,-,N/A,,Clear,330,2012-11-05 13:55:00
9:15 AM,37.8,24.1,58,30.22,10.0,North,6.9,-,N/A,,Scattered Clouds,350,2012-11-05 14:15:00
9:34 AM,38.3,23.7,56,30.22,10.0,NW,6.9,-,N/A,,Mostly Cloudy,320,2012-11-05 14:34:00
9:55 AM,38.5,23.7,55,30.23,10.0,NW,6.9,-,N/A,,Overcast,320,2012-11-05 14:55:00
10:14 AM,39.2,23.7,54,30.23,10.0,Calm,Calm,-,N/A,,Overcast,0,2012-11-05 15:14:00
10:35 AM,39.6,23.7,53,30.23,10.0,NNE,3.5,-,N/A,,Overcast,20,2012-11-05 15:35:00
10:54 AM,39.6,23.7,53,30.23,10.0,ENE,4.6,-,N/A,,Overcast,60,2012-11-05 15:54:00
11:15 AM,40.5,24.4,53,30.23,10.0,Calm,Calm,-,N/A,,Overcast,0,2012-11-05 16:15:00
11:34 AM,40.1,23.9,52,30.23,10.0,NE,4.6,-,N/A,,Overcast,40,2012-11-05 16:34:00
11:54 AM,40.3,23.7,52,30.22,10.0,Calm,Calm,-,N/A,,Overcast,0,2012-11-05 16:54:00
12:15 PM,40.5,23.4,51,30.22,10.0,Calm,Calm,-,N/A,,Overcast,0,2012-11-05 17:15:00
12:34 PM,40.6,23.9,51,30.22,10.0,Calm,Calm,-,N/A,,Overcast,0,2012-11-05 17:34:00
12:55 PM,41.0,23.9,51,30.20,10.0,Calm,Calm,-,N/A,,Overcast,0,2012-11-05 17:55:00
1:14 PM,41.0,24.4,52,30.20,10.0,North,3.5,-,N/A,,Overcast,350,2012-11-05 18:14:00
1:35 PM,40.8,24.3,52,30.20,10.0,Calm,Calm,-,N/A,,Overcast,0,2012-11-05 18:35:00
1:55 PM,41.5,22.5,47,30.19,10.0,ENE,3.5,-,N/A,,Overcast,60,2012-11-05 18:55:00
2:14 PM,41.4,23.7,50,30.19,10.0,WNW,3.5,-,N/A,,Overcast,290,2012-11-05 19:14:00
2:35 PM,41.5,23.5,49,30.19,10.0,Calm,Calm,-,N/A,,Overcast,0,2012-11-05 19:35:00
2:55 PM,41.0,25.3,54,30.19,10.0,NE,3.5,-,N/A,,Overcast,50,2012-11-05 19:55:00
3:14 PM,41.0,24.6,52,30.19,10.0,North,3.5,-,N/A,,Overcast,360,2012-11-05 20:14:00
3:35 PM,41.0,24.1,51,30.19,10.0,Calm,Calm,-,N/A,,Overcast,0,2012-11-05 20:35:00
3:54 PM,41.4,23.5,49,30.19,10.0,Calm,Calm,-,N/A,,Overcast,0,2012-11-05 20:54:00
4:15 PM,40.8,28.0,60,30.19,10.0,ENE,4.6,-,N/A,,Overcast,60,2012-11-05 21:15:00
4:35 PM,40.3,28.0,62,30.18,10.0,NNE,4.6,-,N/A,,Overcast,20,2012-11-05 21:35:00
4:54 PM,39.6,28.2,64,30.18,10.0,ENE,6.9,-,N/A,,Mostly Cloudy,60,2012-11-05 21:54:00
5:15 PM,39.4,28.4,65,30.18,10.0,NNE,4.6,-,N/A,,Mostly Cloudy,30,2012-11-05 22:15:00
5:34 PM,39.2,29.1,67,30.19,10.0,East,4.6,-,N/A,,Overcast,90,2012-11-05 22:34:00
5:55 PM,38.8,28.9,68,30.19,10.0,Calm,Calm,-,N/A,,Overcast,0,2012-11-05 22:55:00
6:14 PM,38.5,28.9,69,30.20,10.0,Calm,Calm,-,N/A,,Overcast,0,2012-11-05 23:14:00
6:35 PM,38.5,28.9,69,30.20,10.0,East,3.5,-,N/A,,Overcast,80,2012-11-05 23:35:00
6:54 PM,38.3,29.1,70,30.20,10.0,Calm,Calm,-,N/A,,Overcast,0,2012-11-05 23:54:00
7:14 PM,38.1,29.3,71,30.20,10.0,East,3.5,-,N/A,,Overcast,90,2012-11-06 00:14:00
7:35 PM,38.3,29.3,70,30.21,10.0,Calm,Calm,-,N/A,,Overcast,0,2012-11-06 00:35:00
7:54 PM,38.3,29.3,70,30.20,10.0,Calm,Calm,-,N/A,,Overcast,0,2012-11-06 00:54:00
8:15 PM,38.5,28.9,69,30.20,10.0,Calm,Calm,-,N/A,,Overcast,0,2012-11-06 01:15:00
8:35 PM,38.3,29.1,70,30.20,10.0,Calm,Calm,-,N/A,,Overcast,0,2012-11-06 01:35:00
8:54 PM,38.3,29.1,70,30.20,10.0,ESE,3.5,-,N/A,,Overcast,110,2012-11-06 01:54:00
9:15 PM,37.9,28.8,70,30.20,10.0,East,4.6,-,N/A,,Overcast,90,2012-11-06 02:15:00
9:34 PM,37.8,28.4,69,30.20,10.0,ESE,3.5,-,N/A,,Overcast,110,2012-11-06 02:34:00
9:55 PM,37.8,28.2,68,30.20,10.0,East,4.6,-,N/A,,Overcast,100,2012-11-06 02:55:00
10:14 PM,37.8,28.0,68,30.20,10.0,East,3.5,-,N/A,,Overcast,100,2012-11-06 03:14:00
10:35 PM,37.8,27.1,66,30.20,10.0,Calm,Calm,-,N/A,,Overcast,0,2012-11-06 03:35:00
10:55 PM,37.6,27.1,66,30.20,10.0,ESE,3.5,-,N/A,,Overcast,110,2012-11-06 03:55:00
11:14 PM,37.6,27.1,66,30.19,10.0,Calm,Calm,-,N/A,,Overcast,0,2012-11-06 04:14:00
11:35 PM,37.6,26.8,65,30.19,10.0,SE,3.5,-,N/A,,Overcast,130,2012-11-06 04:35:00
11:55 PM,37.4,25.9,63,30.18,10.0,SE,3.5,-,N/A,,Overcast,130,2012-11-06 04:55:00